When you browse on this site, cookies collect data to enhance your experience and personalize the content and advertising you see.
Visit our Privacy Policy to learn more. By continuing to use the site, you agree to this use of cookies and data.

Hourly Weather Tamale

Today, 6 August, Thursday

Time Temperature Precipitation Wind Pressure Humidity
00:00 +24°C° 0 mm 1 mps 744 mmHg 78%
01:00 +24°C° 0 mm 1 mps 743 mmHg 78%
02:00 +24°C° 0 mm 1 mps 743 mmHg 79%
03:00 +24°C° 0 mm 1 mps 743 mmHg 79%
04:00 +23°C° 0 mm 1 mps 743 mmHg 80%
05:00 +23°C° 0 mm 2 mps 743 mmHg 81%
06:00 +23°C° 0 mm 2 mps 744 mmHg 82%
07:00 +24°C° 0 mm 3 mps 744 mmHg 79%
08:00 +26°C° 0 mm 3 mps 744 mmHg 76%
09:00 +27°C° 0 mm 4 mps 744 mmHg 72%
10:00 +28°C° 0 mm 4 mps 744 mmHg 68%
11:00 +29°C° 0 mm 4 mps 744 mmHg 64%
12:00 +30°C° 0 mm 4 mps 744 mmHg 60%
13:00 +30°C° 0 mm 3 mps 744 mmHg 60%
14:00 +31°C° 0 mm 3 mps 743 mmHg 60%
15:00 +31°C° 0 mm 3 mps 743 mmHg 59%
16:00 +30°C° 0.1 mm 2 mps 743 mmHg 64%
17:00 +29°C° 0.1 mm 2 mps 743 mmHg 69%
18:00 +28°C° 0.1 mm 1 mps 743 mmHg 74%
19:00 +27°C° 0 mm 1 mps 743 mmHg 76%
20:00 +26°C° 0 mm 1 mps 744 mmHg 77%
21:00 +25°C° 0 mm 1 mps 744 mmHg 79%
22:00 +25°C° 0 mm 1 mps 744 mmHg 80%
23:00 +25°C° 0 mm 2 mps 744 mmHg 81%

Tomorrow, 7 August, Friday

Time Temperature Precipitation Wind Pressure Humidity
00:00 +24°C° 0 mm 2 mps 744 mmHg 82%
01:00 +24°C° 0 mm 2 mps 744 mmHg 83%
02:00 +24°C° 0 mm 2 mps 743 mmHg 84%
03:00 +24°C° 0 mm 2 mps 743 mmHg 85%
04:00 +24°C° 0 mm 2 mps 743 mmHg 85%
05:00 +24°C° 0 mm 2 mps 744 mmHg 84%
06:00 +24°C° 0 mm 2 mps 744 mmHg 83%
07:00 +24°C° 0.1 mm 2 mps 744 mmHg 84%
08:00 +24°C° 0.1 mm 2 mps 745 mmHg 85%
09:00 +24°C° 0.1 mm 2 mps 745 mmHg 86%
10:00 +24°C° 0.2 mm 2 mps 745 mmHg 87%
11:00 +24°C° 0.2 mm 2 mps 745 mmHg 87%
12:00 +24°C° 0.2 mm 3 mps 745 mmHg 88%
13:00 +26°C° 0 mm 3 mps 744 mmHg 81%
14:00 +27°C° 0 mm 3 mps 743 mmHg 75%
15:00 +29°C° 0 mm 4 mps 742 mmHg 68%
16:00 +28°C° 0 mm 3 mps 743 mmHg 72%
17:00 +27°C° 0 mm 2 mps 743 mmHg 75%
18:00 +26°C° 0 mm 2 mps 743 mmHg 79%
19:00 +26°C° 0 mm 1 mps 744 mmHg 80%
20:00 +25°C° 0 mm 1 mps 744 mmHg 81%
21:00 +25°C° 0 mm 1 mps 745 mmHg 82%
22:00 +25°C° 0 mm 1 mps 745 mmHg 84%
23:00 +24°C° 0 mm 1 mps 745 mmHg 86%

Day after tomorrow, 8 August, Saturday

Time Temperature Precipitation Wind Pressure Humidity
00:00 +24°C° 0 mm 1 mps 745 mmHg 88%
01:00 +23°C° 0 mm 1 mps 745 mmHg 89%
02:00 +23°C° 0 mm 1 mps 744 mmHg 90%
03:00 +23°C° 0 mm 2 mps 744 mmHg 91%
04:00 +23°C° 0 mm 2 mps 745 mmHg 92%
05:00 +23°C° 0 mm 2 mps 745 mmHg 93%
06:00 +21°C° 0 mm 2 mps 745 mmHg 94%
07:00 +24°C° 0 mm 2 mps 746 mmHg 88%
08:00 +25°C° 0 mm 3 mps 746 mmHg 81%
09:00 +27°C° 0 mm 4 mps 746 mmHg 74%
10:00 +28°C° 0 mm 4 mps 746 mmHg 70%
11:00 +29°C° 0 mm 4 mps 746 mmHg 66%
12:00 +30°C° 0 mm 4 mps 745 mmHg 63%
13:00 +30°C° 0.1 mm 4 mps 745 mmHg 62%
14:00 +30°C° 0.1 mm 4 mps 744 mmHg 62%
15:00 +30°C° 0.1 mm 4 mps 743 mmHg 61%
16:00 +29°C° 0 mm 3 mps 743 mmHg 67%
17:00 +28°C° 0 mm 2 mps 744 mmHg 72%
18:00 +27°C° 0 mm 2 mps 744 mmHg 78%
19:00 +26°C° 0 mm 2 mps 744 mmHg 81%
20:00 +25°C° 0 mm 1 mps 745 mmHg 84%
21:00 +24°C° 0 mm 1 mps 745 mmHg 87%
22:00 +24°C° 0 mm 1 mps 745 mmHg 88%
23:00 +23°C° 0 mm 1 mps 745 mmHg 90%

9 August, Sunday

Time Temperature Precipitation Wind Pressure Humidity
00:00 +23°C° 0 mm 1 mps 745 mmHg 92%
01:00 +23°C° 0 mm 1 mps 744 mmHg 92%
02:00 +22°C° 0 mm 1 mps 744 mmHg 93%
03:00 +22°C° 0 mm 1 mps 744 mmHg 93%
04:00 +23°C° 0 mm 1 mps 744 mmHg 92%
05:00 +23°C° 0 mm 1 mps 744 mmHg 91%
06:00 +23°C° 0 mm 1 mps 745 mmHg 89%
07:00 +24°C° 0 mm 2 mps 745 mmHg 84%
08:00 +25°C° 0 mm 3 mps 746 mmHg 79%
09:00 +27°C° 0 mm 3 mps 746 mmHg 74%
10:00 +28°C° 0 mm 3 mps 746 mmHg 70%
11:00 +29°C° 0 mm 3 mps 745 mmHg 66%
12:00 +30°C° 0 mm 3 mps 745 mmHg 62%
13:00 +30°C° 0 mm 3 mps 744 mmHg 60%
14:00 +31°C° 0 mm 3 mps 743 mmHg 59%
15:00 +31°C° 0 mm 3 mps 743 mmHg 57%
16:00 +30°C° 0 mm 2 mps 743 mmHg 63%
17:00 +29°C° 0 mm 2 mps 742 mmHg 68%
18:00 +27°C° 0 mm 1 mps 742 mmHg 74%
19:00 +27°C° 0 mm 1 mps 742 mmHg 76%
20:00 +26°C° 0 mm 2 mps 743 mmHg 78%
21:00 +25°C° 0 mm 2 mps 743 mmHg 80%
22:00 +24°C° 0 mm 1 mps 743 mmHg 81%
23:00 +24°C° 0 mm 1 mps 743 mmHg 82%

10 August, Monday

Time Temperature Precipitation Wind Pressure Humidity
00:00 +23°C° 0 mm 1 mps 743 mmHg 83%
01:00 +23°C° 0 mm 1 mps 743 mmHg 82%
02:00 +23°C° 0 mm 2 mps 743 mmHg 81%
03:00 +23°C° 0 mm 2 mps 742 mmHg 81%
04:00 +23°C° 0 mm 2 mps 743 mmHg 84%
05:00 +21°C° 0 mm 2 mps 743 mmHg 87%
06:00 +21°C° 0 mm 2 mps 743 mmHg 90%
07:00 +22°C° 0 mm 3 mps 744 mmHg 84%
08:00 +25°C° 0 mm 3 mps 744 mmHg 79%
09:00 +26°C° 0 mm 4 mps 745 mmHg 74%
10:00 +28°C° 0 mm 4 mps 744 mmHg 69%
11:00 +29°C° 0 mm 4 mps 744 mmHg 65%
12:00 +32°C° 0 mm 4 mps 744 mmHg 60%
13:00 +32°C° 0 mm 4 mps 743 mmHg 60%
14:00 +31°C° 0 mm 3 mps 742 mmHg 59%
15:00 +31°C° 0 mm 3 mps 742 mmHg 59%
16:00 +30°C° 0 mm 3 mps 741 mmHg 64%
17:00 +29°C° 0 mm 3 mps 741 mmHg 68%
18:00 +28°C° 0 mm 2 mps 741 mmHg 73%
19:00 +27°C° 0 mm 2 mps 742 mmHg 75%
20:00 +26°C° 0 mm 2 mps 742 mmHg 76%
21:00 +25°C° 0 mm 2 mps 743 mmHg 77%
22:00 +24°C° 0 mm 2 mps 743 mmHg 78%
23:00 +24°C° 0 mm 1 mps 743 mmHg 80%

11 August, Tuesday

Time Temperature Precipitation Wind Pressure Humidity
00:00 +23°C° 0 mm 1 mps 743 mmHg 81%
01:00 +23°C° 0 mm 2 mps 743 mmHg 82%
02:00 +23°C° 0 mm 2 mps 743 mmHg 83%
03:00 +21°C° 0 mm 2 mps 743 mmHg 85%
04:00 +21°C° 0 mm 2 mps 743 mmHg 86%
05:00 +21°C° 0 mm 2 mps 743 mmHg 88%
06:00 +20°C° 0 mm 2 mps 744 mmHg 90%
07:00 +23°C° 0 mm 2 mps 744 mmHg 83%
08:00 +25°C° 0 mm 3 mps 745 mmHg 77%
09:00 +27°C° 0 mm 4 mps 745 mmHg 71%
10:00 +28°C° 0 mm 3 mps 745 mmHg 66%
11:00 +30°C° 0 mm 3 mps 744 mmHg 62%
12:00 +31°C° 0 mm 3 mps 744 mmHg 57%
13:00 +31°C° 0 mm 3 mps 743 mmHg 57%
14:00 +33°C° 0 mm 3 mps 743 mmHg 56%
15:00 +33°C° 0 mm 3 mps 742 mmHg 56%
16:00 +30°C° 0 mm 3 mps 742 mmHg 61%
17:00 +29°C° 0 mm 3 mps 742 mmHg 66%
18:00 +28°C° 0 mm 2 mps 742 mmHg 72%
19:00 +27°C° 0 mm 2 mps 742 mmHg 74%
20:00 +25°C° 0 mm 2 mps 743 mmHg 75%
21:00 +24°C° 0 mm 1 mps 744 mmHg 77%
22:00 +24°C° 0 mm 1 mps 744 mmHg 79%
23:00 +23°C° 0 mm 1 mps 744 mmHg 80%
Show more